Bangor, ME

11:02 AM EDT on April 28, 2017 (GMT -0400)
Bangor International

Weather History for KBGR - February, 2014

Change the Weather History Date:

Friday, February 28, 2014

  Actual Average Record
Temperature  
Mean Temperature 12 °F 25 °F  
Max Temperature 21 °F 35 °F 51 °F (2017)
Min Temperature 3 °F 14 °F -16 °F (2015)
Degree Days  
Heating Degree Days 53 40  
Month to date heating degree days 1310 1238  
Since 1 July heating degree days 5752 5646  
Cooling Degree Days 0 0  
Month to date cooling degree days 0 0  
Year to date cooling degree days 0 0  
Moisture  
Dew Point -4 °F    
Average Humidity 56    
Maximum Humidity 87    
Minimum Humidity 25    
Precipitation  
Precipitation T in 0.10 in 0.90 in (1958)
Month to date precipitation 1.99 2.52  
Year to date precipitation 5.17 5.41  
Snow  
Snow T in 0.50 in 8.00 in (1958)
Month to date snowfall 25.2 14.7  
Since 1 July snowfall 63.2 50.7  
Snow Depth 7.00 in    
Sea Level Pressure  
Sea Level Pressure 30.11 in    
Wind  
Wind Speed 8 mph (WNW)    
Max Wind Speed 21 mph    
Max Gust Speed 29 mph    
Visibility 9 miles    
Events Snow    
T = Trace of Precipitation, MM = Missing Value Source: NWS Daily Summary

Daily Weather History Graph

Daily Weather History Graph

Search for Another Location

Airport or City:

Trip Planner

Search our weather history database for the weather conditions in past years. The results will help you decide how hot, cold, wet, or windy it might be!

Date:

Astronomy

Feb. 28, 2014 Rise Set
Actual Time 6:14 AM EST 5:21 PM EST
Civil Twilight 5:45 AM EST 5:51 PM EST
Nautical Twilight 5:11 AM EST 6:24 PM EST
Astronomical Twilight 4:37 AM EST 6:58 PM EST
Moon 5:27 AM EST 4:54 PM EST
Length of Visible Light 12h 05m
Length of Day
11h 06m
Waning Crescent, 1% of the Moon is Illuminated
Feb 28
Waning Crescent
Mar 1
New
Mar 8
First Quarter
Mar 16
Full
Mar 23
Last Quarter

Hourly Weather History & Observations

Time (EST) Temp. Windchill Dew Point Humidity Pressure Visibility Wind Dir Wind Speed Gust Speed Precip Events Conditions
12:53 AM 12.0 °F -0.4 °F 7.0 °F 80% 29.75 in 10.0 mi WNW 9.2 mph - 0.00 in Snow Light Snow
1:03 AM 10.9 °F -1.8 °F 7.0 °F 84% 29.74 in 2.0 mi WNW 9.2 mph - 0.00 in Snow Light Snow
1:10 AM 10.9 °F -1.8 °F 7.0 °F 84% 29.74 in 1.8 mi NW 9.2 mph - 0.00 in Snow Light Snow
1:16 AM 10.9 °F -0.8 °F 7.0 °F 84% 29.74 in 3.0 mi WNW 8.1 mph - 0.00 in Snow Light Snow
1:53 AM 12.0 °F 4.1 °F 7.0 °F 80% 29.78 in 8.0 mi West 4.6 mph - 0.00 in   Overcast
2:53 AM 12.9 °F 5.2 °F 7.0 °F 77% 29.82 in 10.0 mi WSW 4.6 mph - N/A   Overcast
3:53 AM 12.9 °F 6.9 °F 6.1 °F 74% 29.86 in 10.0 mi West 3.5 mph - N/A   Overcast
4:53 AM 12.9 °F 0.7 °F 1.0 °F 59% 29.91 in 10.0 mi West 9.2 mph - N/A   Overcast
5:53 AM 10.9 °F -2.6 °F -2.9 °F 54% 29.96 in 10.0 mi West 10.4 mph - N/A   Scattered Clouds
6:53 AM 10.0 °F -2.9 °F -2.9 °F 56% 30.01 in 10.0 mi West 9.2 mph - N/A   Clear
7:53 AM 10.9 °F 2.9 °F -4.0 °F 51% 30.05 in 10.0 mi West 4.6 mph - N/A   Clear
8:53 AM 12.9 °F -0.9 °F -5.1 °F 45% 30.09 in 10.0 mi West 11.5 mph 20.7 mph N/A   Clear
9:53 AM 16.0 °F 2.3 °F -6.0 °F 38% 30.11 in 10.0 mi West 12.7 mph 20.7 mph N/A   Clear
10:53 AM 18.0 °F 3.6 °F -6.0 °F 35% 30.14 in 10.0 mi WNW 15.0 mph 27.6 mph N/A   Partly Cloudy
11:53 AM 19.0 °F 6.8 °F -7.1 °F 31% 30.17 in 10.0 mi WNW 11.5 mph 21.9 mph N/A   Partly Cloudy
12:53 PM 19.9 °F 8.6 °F -7.1 °F 30% 30.17 in 10.0 mi West 10.4 mph 19.6 mph N/A   Partly Cloudy
1:53 PM 19.9 °F 9.3 °F -7.1 °F 30% 30.20 in 10.0 mi West 9.2 mph 20.7 mph N/A   Partly Cloudy
2:53 PM 21.0 °F 7.6 °F -9.0 °F 26% 30.22 in 10.0 mi NW 15.0 mph 24.2 mph N/A   Partly Cloudy
3:53 PM 19.9 °F 7.9 °F -9.9 °F 26% 30.25 in 10.0 mi West 11.5 mph 21.9 mph N/A   Clear
4:53 PM 19.0 °F 7.5 °F -9.9 °F 27% 30.29 in 10.0 mi West 10.4 mph - N/A   Clear
5:53 PM 16.0 °F 4.4 °F -11.0 °F 30% 30.32 in 10.0 mi NW 9.2 mph - N/A   Clear
6:53 PM 14.0 °F 2.9 °F -11.0 °F 32% 30.36 in 10.0 mi WNW 8.1 mph - N/A   Clear
7:53 PM 12.9 °F 5.2 °F -11.0 °F 34% 30.39 in 10.0 mi West 4.6 mph - N/A   Clear
8:53 PM 10.9 °F 2.9 °F -9.9 °F 39% 30.42 in 10.0 mi WSW 4.6 mph - N/A   Clear
9:53 PM 5.0 °F - -9.0 °F 52% 30.44 in 10.0 mi Calm Calm - N/A   Clear
10:53 PM 3.9 °F -3.4 °F -9.0 °F 55% 30.45 in 10.0 mi NW 3.5 mph - N/A   Clear
11:53 PM 7.0 °F -4.5 °F -11.0 °F 44% 30.46 in 10.0 mi NNW 6.9 mph - N/A   Clear